Regional Weather Roundup
Issued by NWS

Home | Current Version | Previous Version | Graphics & Text | Print | Product List | Glossary On
Versions: 1 2 3 4 5 6 7 8 9 10 11 12 13 14 15 16 17 18 19 20 21 22 23 24 25 26 27 28 29 30 31 32 33 34 35 36 37 38 39 40 41 42 43 44 45 46 47 48 49 50
000
ASUS43 KFSD 300210
RWRSD

WEATHER ROUNDUP FOR SOUTH DAKOTA
NATIONAL WEATHER SERVICE SIOUX FALLS SD
900 PM CDT WED OCT 29 2014

NOTE: "FAIR" INDICATES FEW OR NO CLOUDS BELOW 12,000 FEET WITH NO
SIGNIFICANT WEATHER AND/OR OBSTRUCTIONS TO VISIBILITY.


SDZ001>005-009-010-012>017-300300-
NORTHWEST AND NORTH CENTRAL SOUTH DAKOTA

CITY           SKY/WX    TMP DP  RH WIND       PRES   REMARKS
BUFFALO          N/A     42  34  73 NW12      29.96R
FAITH            N/A     44  34  67 W8        30.00R
MOBRIDGE       CLOUDY    49  36  61 NW3       29.94S
$$

SDZ012>016-024>037-041>051-057-063-072>074-300300-
SOUTHWEST AND SOUTH CENTRAL SOUTH DAKOTA

CITY           SKY/WX    TMP DP  RH WIND       PRES   REMARKS
RAPID CTY ARPT PTCLDY    50  35  56 NW12      30.07R
PIERRE         MOCLDY    46  32  58 SE7       29.96F
CUSTER         CLOUDY    47  29  49 NW10G20   30.12R
ELLSWORTH AFB  CLEAR     49  35  58 NW7       30.06R
PHILIP         CLEAR     44  30  57 W7        30.01R
PINE RIDGE     CLEAR     40  26  57 CALM      30.06R HAZE
SPEARFISH      FAIR      41  32  70 N3        30.10R
WINNER         MOCLDY    56  27  32 S6        29.98R
$$

SDZ004>011-016>023-039-040-300300-
NORTHEAST SOUTH DAKOTA

CITY           SKY/WX    TMP DP  RH WIND       PRES   REMARKS
ABERDEEN       CLOUDY    47  35  63 S10       29.97F
WATERTOWN      CLOUDY    42  33  70 S7        29.99F
SISSETON         N/A     41  35  79 S9        29.99F
$$

SDZ017-020-022-023-036>040-048>070-300300-
SOUTHEAST SOUTH DAKOTA

CITY           SKY/WX    TMP DP  RH WIND       PRES   REMARKS
SIOUX FALLS    CLOUDY    47  31  53 S9        30.03F
HURON          CLOUDY    49  31  49 S9        29.98F
CHAMBERLAIN    CLOUDY    49  32  52 SE5       29.97S
MITCHELL       CLOUDY    47  34  60 SE5       30.01S
YANKTON        MOCLDY    46  32  57 SE6       30.03F
$$

ABBREVIATIONS USED IN REMARKS
   TC - TEMPERATURE IN CELSIUS
  WCI - WIND CHILL INDEX
   HX - HEAT INDEX
  VSB - VISIBILITY




USA.gov is the U.S. government's official web portal to all federal, state and local government web resources and services.